User: anonymous   Login
Location: Red Shale Campground
(45.5700°N, 106.1600°W)
Time: 09:21:02
(UTC-06:00)
Language:

FENGYUN 3A - Orbit

View from above orbital plane
View from above orbital plane
View from above satellite
View from above satellite

Ground track
Ground track

The orbit data is extracted from the following two-line orbital elements,

1 32958U 08026A   17086.88109088 +.00000016 +00000-0 +27005-4 0  9992
2 32958 098.4173 119.5878 0010175 149.4101 210.7666 14.19654618457801
Epoch (UTC): 27 March 2017 21:08:46
Eccentricity: 0.0010175
inclination: 98.4173°
perigee height: 819 km
apogee height: 834 km
right ascension of ascending node: 119.5878°
argument of perigee: 149.4101°
revolutions per day: 14.19654618
mean anomaly at epoch: 210.7666°
orbit number at epoch: 45780

The dashed part of the orbit path shows where the satellite is in the earth's shadow,  

DLR